Location: Laverne
(36.7100°N, 99.8930°W)
Time: 03:34:32
(UTC-05:00)

Daily predictions for brighter satellites

Satellite Brightness Start Highest point End
(mag) Time Altitude Azimuth Time Altitude Azimuth Time Altitude Azimuth
Terra 4.3 00:14:41 19° NNW 00:14:41 19° NNW 00:16:08 10° NNW
Cosmos 2322 Rocket 4.2 00:15:26 22° N 00:15:26 22° N 00:17:23 10° NNE
Cosmos 2263 Rocket 4.1 00:10:28 10° N 00:12:49 24° N 00:12:49 24° N
BREEZE-M DEB (TANK) 4.5 00:07:48 10° NW 00:17:39 47° NNW 00:17:39 47° NNW
SL-16 R/B 4.5 01:07:59 20° NNW 01:07:59 20° NNW 01:10:20 10° N
ATLAS 3B R/B 3.9 02:26:18 42° NE 02:26:18 42° NE 02:30:54 10° NE
USA 238 DEB 4.4 03:11:20 50° NE 03:11:20 50° NE 03:16:24 10° NE
USA 238 4.4 03:11:27 50° NE 03:11:27 50° NE 03:16:31 10° NE
USA 234 4.0 03:10:05 10° NE 03:14:35 45° ENE 03:14:35 45° ENE
CZ-2D R/B 4.1 03:25:03 10° NE 03:28:18 21° E 03:28:18 21° E
Cosmos 2219 Rocket 4.5 03:35:20 15° NNW 03:35:20 15° NNW 03:37:04 10° NNW
Cosmos 2333 Rocket 4.3 03:39:45 18° NNW 03:39:45 18° NNW 03:42:14 10° N
SL-16 R/B 3.6 03:41:56 33° N 03:41:56 33° N 03:45:14 10° NNE
NOSS 3-2 (C) 4.4 03:42:57 39° E 03:42:57 39° E 03:48:02 10° NE
Cosmos 2237 Rocket 4.2 03:48:42 18° NNW 03:48:42 18° NNW 03:51:10 10° N
ADEOS 4.4 04:02:10 10° N 04:05:46 45° N 04:05:46 45° N
IRS-1D 4.0 04:06:04 10° NNE 04:10:24 58° NE 04:10:24 58° NE
ATLAS CENTAUR R/B 4.3 04:09:01 10° N 04:11:45 16° NE 04:14:20 10° E
Resurs 1-4 Rocket 2.5 04:08:43 10° NNE 04:13:29 58° ENE 04:13:29 58° ENE
ATLAS 3B R/B 4.2 04:13:33 24° WNW 04:14:51 25° NW 04:20:48 10° N
Cosmos 1603 4.1 04:22:43 55° NNW 04:22:43 55° NNW 04:27:35 10° NNE
CZ-4C R/B 3.1 04:26:34 35° NW 04:26:34 35° NW 04:31:34 10° NNE
ARIANE 5 R/B 2.8 04:21:46 10° N 04:26:14 64° NNW 04:26:14 64° NNW
Meteor 2-3 Rocket 4.1 04:21:26 10° N 04:27:09 62° E 04:29:01 42° SE
ATLAS 5 CENTAUR R/B 3.4 04:27:26 26° ESE 04:27:56 26° ESE 04:32:04 10° NE
In-Cosmos 22 Rocket 4.0 04:29:12 10° N 04:34:32 86° E 04:34:33 85° E
Okean O Rocket 3.3 04:30:42 10° NE 04:34:35 29° E 04:35:51 25° SE
Cosmos 1892 4.1 04:34:10 10° NNE 04:37:43 35° E 04:37:56 34° E
SL-16 R/B 2.4 04:48:06 59° SW 04:48:45 63° WSW 04:54:53 10° NNW
OAO 3 Copernicus 4.2 04:52:38 74° S 04:52:38 74° S 04:57:38 10° E
Cosmos 2251 Rocket 3.6 04:54:35 58° WNW 04:54:43 58° WNW 04:59:55 10° N
Cosmos 1943 3.1 04:54:02 62° SW 04:54:56 77° WNW 05:00:37 10° NNE
SeaSat 1 2.7 04:51:10 10° SE 04:56:03 69° ENE 05:00:58 10° NNW
USA 234 4.2 04:53:27 10° NNE 04:59:17 36° NNW 05:01:55 26° WNW
Cosmos 1726 4.3 05:04:22 16° NNW 05:04:22 16° NNW 05:05:28 10° NNW
Meteor 2-10 4.1 05:01:41 48° SSW 05:03:17 80° W 05:08:48 10° N
CZ-3A R/B 4.2 05:00:05 33° WSW 05:05:48 72° NNW 06:31:50 10° ENE
Cosmos 2242 Rocket 3.6 05:05:55 63° W 05:06:00 63° W 05:10:33 10° N
Cosmos 1110 Rocket 3.9 05:01:50 10° NNW 05:07:00 65° WSW 05:08:47 40° S
CZ-2D R/B 3.4 05:03:33 10° N 05:07:57 70° WNW 05:08:16 66° WSW
Cosmos 1455 2.1 05:08:34 79° S 05:08:48 87° E 05:12:43 10° N
CZ-2D R/B 2.6 05:04:21 10° N 05:09:16 40° WNW 05:09:38 39° W
Cosmos 2369 Rocket 2.1 05:03:54 10° NNW 05:09:32 90° ENE 05:15:10 10° SSE
CZ-4B R/B 3.6 05:04:51 10° NNE 05:10:06 58° ESE 05:13:51 19° S
Cosmos 2292 Rocket 4.2 05:09:05 10° N 05:10:37 28° NNW 05:10:37 28° NNW
NOSS 3-2 (A) 4.4 05:16:04 28° W 05:18:02 34° NW 05:23:59 10° NNE
Meteor 2-11 Rocket 4.3 05:16:41 30° SSW 05:19:50 71° W 05:25:55 10° N
CZ-4B R/B 2.8 05:21:35 10° NNE 05:25:13 72° ESE 05:26:53 31° S
Cosmos 1862 Rocket 3.4 05:24:25 35° SSW 05:26:12 80° W 05:30:36 10° N
NOSS 3-3 (A) 4.5 05:21:22 10° NW 05:28:49 61° WSW 05:36:37 10° SSE
NOSS 3-3 (C) 4.5 05:21:28 10° NW 05:28:55 61° WSW 05:36:45 10° SSE
PAYLOAD B 4.1 05:24:01 10° NNE 05:29:35 86° WNW 05:33:45 18° SSW
Cosmos 1709 Rocket 4.1 05:23:41 10° NNW 05:29:49 52° W 05:34:40 16° SSW
NOSS 3-2 (C) 4.4 05:30:25 24° W 05:33:00 33° NW 05:38:57 10° NNE
Cosmos 2263 4.1 05:30:54 10° NNW 05:36:42 76° WSW 05:42:27 10° SSE
Cosmos 1933 3.7 05:34:52 11° S 05:38:50 65° E 05:42:55 10° NNE
CENTAUR R/B 2.5 05:38:04 19° SSW 05:42:33 81° ESE 05:49:17 10° NE
Cosmos 1869 3.6 05:41:51 32° SW 05:43:11 45° W 05:47:02 10° N
Cosmos 389 Rocket 2.4 05:42:07 33° SSW 05:43:28 63° W 05:46:57 10° N
Cosmos 1943 Rocket 2.4 05:38:09 10° NNW 05:43:50 72° ENE 05:49:26 10° SSE
ADEOS Rocket 3.8 05:41:43 10° NNE 05:49:27 74° ESE 05:57:11 10° S
Cosmos 2074 Rocket 3.9 05:44:32 10° N 05:50:47 84° W 05:57:00 10° S
ATLAS CENTAUR R/B 1.5 05:47:07 10° NW 05:51:09 46° WSW 05:54:52 10° S
Okean 1-7 4.3 05:47:13 10° SSE 05:51:14 41° E 05:55:18 10° NNE
Cosmos 2184 Rocket 4.0 05:45:02 10° N 05:51:26 86° W 05:57:47 10° S
Cosmos 1825 2.5 05:48:42 10° N 05:52:29 68° E 05:56:15 10° SSE
Resurs 1-4 Rocket 3.8 05:50:12 10° NNW 05:53:13 16° WNW 05:54:33 14° W
Cosmos 2327 Rocket 4.4 05:47:12 10° N 05:53:19 82° W 05:59:28 10° S
Cosmos 1733 Rocket 3.6 05:53:18 10° NNW 05:57:18 35° W 06:01:08 11° SSW
Cosmos 1302 Rocket 4.3 05:53:00 10° NNW 05:57:56 42° WSW 06:02:49 10° S
Atlas Centaur 2 4.0 05:58:41 10° S 06:01:54 17° SSE 06:05:34 10° ESE
Cosmos 1782 Rocket 4.2 05:57:55 10° N 06:02:13 58° E 06:06:28 10° SSE
Cosmos 1408 2.5 05:59:56 10° N 06:03:41 85° W 06:07:25 10° S
NAVSTAR 52 R/B(PAM-D 2.8 06:04:41 46° WNW 06:04:58 58° NNW 06:06:37 10° ENE
Cosmos 2221 Rocket 3.5 06:06:00 10° S 06:10:27 77° W 06:14:54 10° N
Okean-O 2.6 06:06:14 10° N 06:10:41 74° WNW 06:15:04 10° SSW
Okean O Rocket 2.9 06:07:18 10° NNW 06:10:47 23° WNW 06:13:19 14° WSW
ATLAS 5 CENTAUR R/B 2.7 06:09:00 16° WSW 06:12:23 34° NW 06:17:07 10° NNE
ADEOS II 2.1 06:08:17 10° N 06:13:35 82° WNW 06:18:49 10° SSW
PSLV R/B 4.4 06:11:53 10° WNW 06:15:06 37° N 06:18:17 10° ENE
Cosmos 2285 Rocket 4.0 06:12:26 10° NNW 06:18:54 85° WSW 06:25:17 10° SSE
Cosmos 1656 Rocket 4.0 06:15:53 10° NNW 06:21:18 68° ENE 06:26:40 10° SSE
Cosmos 1184 Rocket 4.4 06:19:04 10° NW 06:21:32 19° W 06:23:58 10° SW
Cosmos 1908 Rocket 3.9 06:18:59 10° NNW 06:23:08 42° W 06:27:14 10° SSW
CSL-04 DEB 4.5 06:20:49 10° N 06:24:59 78° WNW 06:29:15 10° SSW
Sich 1 Rocket 4.4 06:22:54 10° NNW 06:26:44 30° W 06:30:35 10° SSW
Thor Agena Rocket 4.1 06:22:16 10° SSW 06:26:55 36° W 06:31:39 10° NNW
COSMOS 2406 3.4 06:22:52 10° SW 06:28:31 55° WNW 06:34:11 10° NNE
CZ-4B R/B 4.3 06:24:08 10° NNE 06:28:40 82° E 06:33:08 10° S
Ariane Rocket 4.1 06:26:15 10° NNE 06:31:10 49° E 06:36:03 10° S
SeaSat 1 4.1 06:31:41 10° SW 06:33:55 13° WSW 06:36:11 10° WNW
Cosmos 1703 Rocket 4.4 06:34:06 10° SW 06:38:06 32° WNW 06:42:08 10° NNW
Cosmos 1190 Rocket 4.0 06:34:50 10° SSW 06:39:59 67° WNW 06:45:10 10° NNE
CZ-3 R/B 4.0 06:32:16 10° W 06:57:22 32° SW 07:05:04 10° SSE
